When you browse on this site, cookies collect data to enhance your experience and personalize the content and advertising you see.
Visit our Privacy Policy to learn more. By continuing to use the site, you agree to this use of cookies and data.
  • în România
  • Lista ţărilor
  • Pe 7 zile
  • Temperatura apei
  • Hartă satelitară
  • Meteo pe hartă
  • Widget-uri
  • user-avatar
    Intrare

    Meteo pe oră la Monastyrschino

    Astăzi, 22 Ianuarie, Marţi

    Timp Temperatura Precipitaţii Vânt Presiune Umiditate
    00:00 -14°C° 0 mm 3 m/s 743 mmHg 94%
    01:00 -14°C° 0 mm 3 m/s 743 mmHg 94%
    02:00 -15°C° 0 mm 3 m/s 743 mmHg 95%
    03:00 -16°C° 0 mm 3 m/s 743 mmHg 96%
    04:00 -17°C° 0 mm 3 m/s 743 mmHg 96%
    05:00 -18°C° 0 mm 3 m/s 743 mmHg 96%
    06:00 -19°C° 0 mm 3 m/s 744 mmHg 95%
    07:00 -21°C° 0 mm 3 m/s 744 mmHg 95%
    08:00 -22°C° 0 mm 3 m/s 744 mmHg 95%
    09:00 -23°C° 0 mm 3 m/s 745 mmHg 96%
    10:00 -22°C° 0 mm 3 m/s 745 mmHg 95%
    11:00 -22°C° 0 mm 4 m/s 746 mmHg 94%
    12:00 -20°C° 0 mm 4 m/s 746 mmHg 93%
    13:00 -19°C° 0 mm 3 m/s 746 mmHg 94%
    14:00 -19°C° 0 mm 3 m/s 747 mmHg 94%
    15:00 -19°C° 0 mm 3 m/s 747 mmHg 94%
    16:00 -21°C° 0 mm 3 m/s 747 mmHg 95%
    17:00 -22°C° 0 mm 3 m/s 747 mmHg 96%
    18:00 -23°C° 0 mm 3 m/s 748 mmHg 97%
    19:00 -23°C° 0 mm 3 m/s 748 mmHg 97%
    20:00 -23°C° 0 mm 2 m/s 748 mmHg 97%
    21:00 -23°C° 0 mm 2 m/s 748 mmHg 97%
    22:00 -23°C° 0 mm 2 m/s 749 mmHg 97%
    23:00 -23°C° 0 mm 2 m/s 749 mmHg 96%

    Mâine, 23 Ianuarie, Miercuri

    Timp Temperatura Precipitaţii Vânt Presiune Umiditate
    00:00 -23°C° 0 mm 2 m/s 749 mmHg 96%
    01:00 -23°C° 0 mm 2 m/s 749 mmHg 95%
    02:00 -23°C° 0 mm 2 m/s 749 mmHg 95%
    03:00 -23°C° 0 mm 2 m/s 749 mmHg 94%
    04:00 -23°C° 0 mm 2 m/s 749 mmHg 93%
    05:00 -23°C° 0 mm 2 m/s 749 mmHg 92%
    06:00 -24°C° 0 mm 2 m/s 749 mmHg 91%
    07:00 -23°C° 0 mm 2 m/s 749 mmHg 93%
    08:00 -21°C° 0 mm 2 m/s 750 mmHg 95%
    09:00 -20°C° 0 mm 2 m/s 750 mmHg 97%
    10:00 -19°C° 0 mm 2 m/s 750 mmHg 96%
    11:00 -17°C° 0 mm 2 m/s 750 mmHg 96%
    12:00 -16°C° 0 mm 3 m/s 750 mmHg 96%
    13:00 -15°C° 0 mm 2 m/s 750 mmHg 96%
    14:00 -14°C° 0 mm 2 m/s 750 mmHg 96%
    15:00 -14°C° 0 mm 2 m/s 750 mmHg 96%
    16:00 -15°C° 0 mm 2 m/s 750 mmHg 96%
    17:00 -16°C° 0 mm 2 m/s 750 mmHg 97%
    18:00 -18°C° 0 mm 3 m/s 750 mmHg 97%
    19:00 -19°C° 0 mm 3 m/s 749 mmHg 97%
    20:00 -19°C° 0 mm 3 m/s 749 mmHg 98%
    21:00 -21°C° 0 mm 3 m/s 749 mmHg 98%
    22:00 -21°C° 0 mm 3 m/s 749 mmHg 96%
    23:00 -19°C° 0 mm 3 m/s 749 mmHg 94%

    Poimâine, 24 Ianuarie, Joi

    Timp Temperatura Precipitaţii Vânt Presiune Umiditate
    00:00 -20°C° 0 mm 4 m/s 749 mmHg 91%
    01:00 -19°C° 0 mm 4 m/s 748 mmHg 92%
    02:00 -19°C° 0 mm 4 m/s 747 mmHg 92%
    03:00 -18°C° 0 mm 4 m/s 747 mmHg 92%
    04:00 -19°C° 0.5 mm 5 m/s 746 mmHg 93%
    05:00 -18°C° 0.5 mm 5 m/s 745 mmHg 94%
    06:00 -18°C° 0.5 mm 5 m/s 745 mmHg 95%
    07:00 -18°C° 0.3 mm 5 m/s 744 mmHg 95%
    08:00 -17°C° 0.3 mm 5 m/s 744 mmHg 94%
    09:00 -16°C° 0.3 mm 4 m/s 744 mmHg 94%
    10:00 -15°C° 0.1 mm 4 m/s 744 mmHg 94%
    11:00 -14°C° 0.1 mm 4 m/s 743 mmHg 93%
    12:00 -13°C° 0.1 mm 3 m/s 743 mmHg 93%
    13:00 -12°C° 0.2 mm 3 m/s 743 mmHg 94%
    14:00 -12°C° 0.2 mm 3 m/s 743 mmHg 94%
    15:00 -12°C° 0.2 mm 3 m/s 743 mmHg 95%
    16:00 -12°C° 0.1 mm 3 m/s 743 mmHg 95%
    17:00 -13°C° 0.1 mm 3 m/s 743 mmHg 96%
    18:00 -13°C° 0.1 mm 3 m/s 743 mmHg 97%
    19:00 -14°C° 0 mm 3 m/s 744 mmHg 97%
    20:00 -15°C° 0 mm 3 m/s 744 mmHg 97%
    21:00 -15°C° 0 mm 3 m/s 744 mmHg 97%
    22:00 -16°C° 0 mm 3 m/s 745 mmHg 97%
    23:00 -17°C° 0 mm 3 m/s 745 mmHg 97%

    25 Ianuarie, Vineri

    Timp Temperatura Precipitaţii Vânt Presiune Umiditate
    00:00 -17°C° 0 mm 3 m/s 745 mmHg 97%
    01:00 -17°C° 0 mm 3 m/s 746 mmHg 97%
    02:00 -19°C° 0 mm 4 m/s 746 mmHg 97%
    03:00 -19°C° 0 mm 4 m/s 746 mmHg 97%
    04:00 -19°C° 0 mm 4 m/s 746 mmHg 97%
    05:00 -19°C° 0 mm 4 m/s 746 mmHg 97%
    06:00 -19°C° 0 mm 4 m/s 747 mmHg 97%
    07:00 -18°C° 0.1 mm 4 m/s 747 mmHg 96%
    08:00 -18°C° 0.1 mm 4 m/s 747 mmHg 96%
    09:00 -19°C° 0.1 mm 5 m/s 747 mmHg 96%
    10:00 -18°C° 0.3 mm 5 m/s 747 mmHg 96%
    11:00 -18°C° 0.3 mm 5 m/s 747 mmHg 96%
    12:00 -17°C° 0.3 mm 5 m/s 747 mmHg 96%
    13:00 -17°C° 0.7 mm 5 m/s 747 mmHg 96%
    14:00 -17°C° 0.7 mm 5 m/s 747 mmHg 96%
    15:00 -15°C° 0.7 mm 5 m/s 746 mmHg 96%
    16:00 -16°C° 1 mm 6 m/s 746 mmHg 96%
    17:00 -16°C° 1 mm 6 m/s 746 mmHg 96%
    18:00 -16°C° 1 mm 6 m/s 746 mmHg 95%
    19:00 -16°C° 0.5 mm 6 m/s 746 mmHg 95%
    20:00 -16°C° 0.5 mm 6 m/s 746 mmHg 94%
    21:00 -16°C° 0.5 mm 6 m/s 746 mmHg 94%
    22:00 -16°C° 0.5 mm 6 m/s 746 mmHg 94%
    23:00 -16°C° 0.5 mm 6 m/s 746 mmHg 95%

    26 Ianuarie, Sâmbătă

    Timp Temperatura Precipitaţii Vânt Presiune Umiditate
    00:00 -16°C° 0.5 mm 6 m/s 745 mmHg 95%
    01:00 -16°C° 0.4 mm 6 m/s 745 mmHg 95%
    02:00 -16°C° 0.4 mm 6 m/s 745 mmHg 94%
    03:00 -16°C° 0.4 mm 6 m/s 745 mmHg 94%
    04:00 -16°C° 0.3 mm 6 m/s 745 mmHg 94%
    05:00 -16°C° 0.3 mm 6 m/s 744 mmHg 94%
    06:00 -16°C° 0.3 mm 6 m/s 744 mmHg 94%
    07:00 -16°C° 0.1 mm 6 m/s 744 mmHg 94%
    08:00 -16°C° 0.1 mm 6 m/s 744 mmHg 93%
    09:00 -16°C° 0.1 mm 6 m/s 745 mmHg 93%
    10:00 -16°C° 0.1 mm 6 m/s 744 mmHg 93%
    11:00 -15°C° 0.1 mm 6 m/s 744 mmHg 93%
    12:00 -15°C° 0.1 mm 6 m/s 744 mmHg 92%
    13:00 -15°C° 0.3 mm 6 m/s 744 mmHg 93%
    14:00 -15°C° 0.3 mm 6 m/s 744 mmHg 93%
    15:00 -15°C° 0.3 mm 6 m/s 743 mmHg 93%
    16:00 -15°C° 0.4 mm 6 m/s 743 mmHg 93%
    17:00 -15°C° 0.4 mm 6 m/s 743 mmHg 93%
    18:00 -16°C° 0.4 mm 6 m/s 743 mmHg 93%
    19:00 -16°C° 0.3 mm 6 m/s 743 mmHg 93%
    20:00 -16°C° 0.3 mm 6 m/s 743 mmHg 93%
    21:00 -16°C° 0.3 mm 6 m/s 743 mmHg 93%
    22:00 -17°C° 0.3 mm 6 m/s 743 mmHg 93%
    23:00 -17°C° 0.3 mm 6 m/s 743 mmHg 93%

    27 Ianuarie, Duminică

    Timp Temperatura Precipitaţii Vânt Presiune Umiditate
    00:00 -18°C° 0.3 mm 6 m/s 743 mmHg 93%
    01:00 -18°C° 0.1 mm 6 m/s 743 mmHg 93%
    02:00 -19°C° 0.1 mm 5 m/s 743 mmHg 93%
    03:00 -19°C° 0.1 mm 5 m/s 743 mmHg 93%
    04:00 -20°C° 0 mm 5 m/s 743 mmHg 93%
    05:00 -20°C° 0 mm 5 m/s 743 mmHg 93%
    06:00 -21°C° 0 mm 5 m/s 743 mmHg 94%
    07:00 -22°C° 0 mm 5 m/s 743 mmHg 94%
    08:00 -22°C° 0 mm 5 m/s 744 mmHg 94%
    09:00 -24°C° 0 mm 5 m/s 744 mmHg 95%
    10:00 -24°C° 0 mm 5 m/s 744 mmHg 94%
    11:00 -22°C° 0 mm 5 m/s 744 mmHg 94%
    12:00 -22°C° 0 mm 5 m/s 744 mmHg 93%
    13:00 -22°C° 0 mm 5 m/s 744 mmHg 93%
    14:00 -21°C° 0 mm 5 m/s 744 mmHg 92%
    15:00 -21°C° 0 mm 5 m/s 744 mmHg 92%
    16:00 -22°C° 0 mm 5 m/s 744 mmHg 93%
    17:00 -22°C° 0 mm 5 m/s 745 mmHg 93%
    18:00 -24°C° 0 mm 5 m/s 745 mmHg 94%
    19:00 -24°C° 0 mm 5 m/s 745 mmHg 95%
    20:00 -24°C° 0 mm 5 m/s 745 mmHg 95%
    21:00 -23°C° 0 mm 4 m/s 746 mmHg 96%
    22:00 -24°C° 0 mm 4 m/s 746 mmHg 96%
    23:00 -24°C° 0 mm 4 m/s 746 mmHg 97%
    Arată mai mult